TimeEST,TemperatureF,Dew PointF,Humidity,Sea Level PressureIn,VisibilityMPH,Wind Direction,Wind SpeedMPH,Gust SpeedMPH,PrecipitationIn,Events,Conditions,WindDirDegrees,DateUTC
12:51 AM,54.0,44.1,69,29.91,10.0,SW,6.9,-,N/A,,Overcast,230,2012-12-08 05:51:00
1:46 AM,55.4,44.6,67,29.95,10.0,SW,5.8,-,N/A,,Overcast,220,2012-12-08 06:46:00
1:51 AM,54.0,44.1,69,29.91,10.0,SW,6.9,-,N/A,,Overcast,220,2012-12-08 06:51:00
3:51 AM,54.0,45.0,72,29.91,10.0,SW,6.9,-,N/A,,Overcast,230,2012-12-08 08:51:00
4:51 AM,53.1,46.0,77,29.91,10.0,WSW,4.6,-,N/A,,Overcast,250,2012-12-08 09:51:00
5:51 AM,53.1,46.0,77,29.92,10.0,SW,4.6,-,N/A,,Overcast,230,2012-12-08 10:51:00
6:51 AM,53.1,46.0,77,29.94,10.0,Calm,Calm,-,N/A,,Overcast,0,2012-12-08 11:51:00
7:51 AM,52.0,46.0,80,29.96,10.0,SW,4.6,-,N/A,,Overcast,230,2012-12-08 12:51:00
8:22 AM,51.8,46.4,82,29.98,10.0,Calm,Calm,-,N/A,,Overcast,0,2012-12-08 13:22:00
8:51 AM,52.0,46.9,83,29.97,10.0,WSW,4.6,-,N/A,,Overcast,240,2012-12-08 13:51:00
9:03 AM,53.6,46.4,77,29.98,10.0,SSW,4.6,-,N/A,,Overcast,210,2012-12-08 14:03:00
9:12 AM,53.6,46.4,77,29.98,10.0,SW,5.8,-,N/A,,Overcast,230,2012-12-08 14:12:00
9:51 AM,55.9,48.0,75,29.96,10.0,SW,8.1,-,N/A,,Mostly Cloudy,230,2012-12-08 14:51:00
10:51 AM,57.0,48.0,72,29.96,10.0,WSW,6.9,-,N/A,,Mostly Cloudy,250,2012-12-08 15:51:00
11:34 AM,59.0,48.2,67,29.96,10.0,SSW,9.2,16.1,N/A,,Overcast,210,2012-12-08 16:34:00
11:51 AM,61.0,48.0,62,29.92,10.0,SW,9.2,-,N/A,,Overcast,220,2012-12-08 16:51:00
12:05 PM,60.8,46.4,59,29.96,10.0,WSW,10.4,17.3,N/A,,Overcast,240,2012-12-08 17:05:00
12:33 PM,59.0,46.4,63,29.95,10.0,West,10.4,-,N/A,,Overcast,260,2012-12-08 17:33:00
12:51 PM,59.0,46.9,64,29.91,10.0,SW,6.9,-,N/A,,Overcast,230,2012-12-08 17:51:00
1:51 PM,61.0,46.0,58,29.89,10.0,WSW,8.1,-,N/A,,Mostly Cloudy,240,2012-12-08 18:51:00
2:51 PM,61.0,46.0,58,29.89,10.0,SSW,10.4,-,N/A,,Overcast,210,2012-12-08 19:51:00
3:51 PM,61.0,46.9,60,29.90,10.0,WSW,10.4,-,N/A,,Overcast,240,2012-12-08 20:51:00
4:51 PM,57.0,50.0,77,29.94,10.0,North,4.6,-,0.01,Rain,Light Rain,350,2012-12-08 21:51:00
5:51 PM,55.0,51.1,86,29.97,10.0,Calm,Calm,-,0.00,,Overcast,0,2012-12-08 22:51:00
6:51 PM,54.0,51.1,90,29.98,10.0,NNW,4.6,-,N/A,,Overcast,340,2012-12-08 23:51:00
7:17 PM,53.6,51.8,94,30.01,10.0,Calm,Calm,-,N/A,,Overcast,0,2012-12-09 00:17:00
7:51 PM,54.0,51.1,90,29.99,10.0,Calm,Calm,-,N/A,,Overcast,0,2012-12-09 00:51:00
8:51 PM,53.1,51.1,93,30.00,10.0,Calm,Calm,-,N/A,,Overcast,0,2012-12-09 01:51:00
9:23 PM,53.6,51.8,94,30.02,2.0,NNW,5.8,-,N/A,,Overcast,340,2012-12-09 02:23:00
9:25 PM,53.6,51.8,94,30.03,0.8,NW,6.9,-,0.00,Rain,Light Rain,310,2012-12-09 02:25:00
9:30 PM,53.6,51.8,94,30.02,0.2,Calm,Calm,-,0.00,Fog-Rain,Light Rain,0,2012-12-09 02:30:00
9:40 PM,53.6,51.8,94,30.03,0.5,NNW,4.6,-,0.01,Fog-Rain,Heavy Rain,330,2012-12-09 02:40:00
9:51 PM,53.1,52.0,96,30.00,2.5,Calm,Calm,-,0.06,Rain,Rain,0,2012-12-09 02:51:00
9:58 PM,53.6,51.8,94,30.03,5.0,Calm,Calm,-,0.00,Rain,Light Rain,0,2012-12-09 02:58:00
10:06 PM,53.6,51.8,94,30.03,5.0,Calm,Calm,-,0.00,Rain,Light Rain,0,2012-12-09 03:06:00
10:51 PM,52.0,51.1,97,30.01,7.0,Calm,Calm,-,0.02,,Overcast,0,2012-12-09 03:51:00
10:59 PM,51.8,51.8,100,30.02,6.0,East,3.5,-,N/A,,Overcast,80,2012-12-09 03:59:00
11:51 PM,52.0,50.0,93,29.99,10.0,ESE,3.5,-,0.00,,Mostly Cloudy,110,2012-12-09 04:51:00